Regional Weather Roundup
Issued by NWS

Home | Current Version | Previous Version | Graphics & Text | Print | Product List | Glossary On
Versions: 1 2 3 4 5 6 7 8 9 10 11 12 13 14 15 16 17 18 19 20 21 22 23 24 25 26 27 28 29 30 31 32 33 34 35 36 37 38 39 40 41 42 43 44 45 46 47 48 49 50
924
ASUS44 KLIX 220105
RWRLA
LOUISIANA WEATHER ROUNDUP
NATIONAL WEATHER SERVICE NEW ORLEANS LA
800 PM CDT TUE OCT 21 2014

NOTE: "FAIR" INDICATES FEW OR NO CLOUDS BELOW 12,000 FEET WITH NO
      SIGNIFICANT WEATHER AND/OR OBSTRUCTIONS TO VISIBILITY.
      SKY/WX - SKY CONDITION AND SIGNIFICANT WEATHER.
      TMP - AIR TEMPERATURE.    DP   - DEWPOINT TEMPERATURE.
      RH  - RELATIVE HUMIDITY.  PRES - PRESSURE.
      HX  - HEAT INDEX.         WCI  - WIND CHILL INDEX.

*  THESE STATIONS ARE NOT NWS OR FAA STATIONS AND ARE NOT UNDER
   NWS QUALITY CONTROL.

LAZ040-048-061>063-065-066-069-220200-
SOUTHEAST LOUISIANA

CITY           SKY/WX    TMP DP  RH WIND       PRES   REMARKS
N.O. AUDUBON     N/A     70  56  60 MISG        N/A
N.O. INTL ARPT CLEAR     71  55  56 CALM      30.00R
N.O. LAKEFRONT CLEAR     75  61  61 NE5       30.00R
N.O. DOWNTOWN* FAIR      75  52  43 CALM      30.00R
SLIDELL        CLEAR     64  60  87 CALM      30.00R
BATON ROUGE    CLEAR     68  58  70 CALM      30.01R
BOOTHVILLE     CLEAR     70  60  70 SE3       30.00R
BELLE CHASSE   CLEAR     62  57  83 CALM      29.99R
BOGALUSA*        N/A     63  56  80 CALM      30.02R
NEW ROADS*     FAIR      66  59  79 N5        30.01R
GONZALES*      FAIR      64  64 100 CALM      30.00R
HAMMOND*       CLEAR     64  57  77 NE3       30.02R
HOUMA*         CLEAR     64  58  82 CALM      29.99R
PORT FOURCHON* CLOUDY    72  57  60 NE6       30.03R

$$

LAZ041-044-053-054-220200-
SOUTHWEST LOUISIANA

CITY           SKY/WX    TMP DP  RH WIND       PRES   REMARKS
LAKE CHARLES   CLEAR     66  61  84 CALM      30.00R
LAFAYETTE      CLEAR     67  61  81 NE5       30.01R
PATTERSON      CLEAR     64  61  88 CALM      30.02R
SALT POINT       N/A     69  61  75 CALM      29.99R
NEW IBERIA     CLEAR     68  60  75 N6        30.01R
CHENAULT AIRPK NOT AVBL

$$

LAZ027-028-220200-
CENTRAL LOUISIANA

CITY           SKY/WX    TMP DP  RH WIND       PRES   REMARKS
FORT POLK      CLEAR     68  63  84 N6        30.02R
ALEXANDRIA INT CLEAR     66  62  87 CALM      30.01R
ALEXANDRIA     PTCLDY    64  63  96 CALM      30.03R

$$

LAZ001-002-220200-
NORTHWEST LOUISIANA

CITY           SKY/WX    TMP DP  RH WIND       PRES   REMARKS
SHREVEPORT     CLEAR     67  61  81 W3        30.03R
BARKSDALE AFB  CLEAR     66  61  84 NE2       30.04R
DTN SHREVEPORT CLEAR     66  61  84 CALM      30.03R

$$

LAZ014-016-220200-
NORTHEAST LOUISIANA

CITY           SKY/WX    TMP DP  RH WIND       PRES   REMARKS
MONROE         CLEAR     65  61  87 CALM      30.05R
TALLULAH       CLEAR     60  58  92 CALM      30.03R

$$




USA.gov is the U.S. government's official web portal to all federal, state and local government web resources and services.